Soldotna, AK

2:40 PM AKDT on September 24, 2017 (GMT -0800)
Soldotna

Weather History for PASX - July, 2011

Change the Weather History Date:

Tuesday, July 19, 2011

  Actual Average Record
Temperature  
Mean Temperature 55 °F -  
Max Temperature 64 °F 63 °F 75 °F (1966)
Min Temperature 46 °F 49 °F 33 °F (2006)
Degree Days  
Heating Degree Days 10    
Growing Degree Days 5 (Base 50)    
Moisture  
Dew Point 41 °F    
Average Humidity 59    
Maximum Humidity 87    
Minimum Humidity 37    
Precipitation  
Precipitation 0.00 in - - ()
Sea Level Pressure  
Sea Level Pressure 29.82 in    
Wind  
Wind Speed 5 mph (NW)    
Max Wind Speed 13 mph    
Max Gust Speed 16 mph    
Visibility 9 miles    
Events      
Averages and records for this station are not official NWS values.
T = Trace of Precipitation, MM = Missing Value Source: NWS Daily Summary

Daily Weather History Graph

Daily Weather History Graph

Search for Another Location

Airport or City:

Trip Planner

Search our weather history database for the weather conditions in past years. The results will help you decide how hot, cold, wet, or windy it might be!

Date:

Astronomy

Jul. 19, 2011 Rise Set
Actual Time 5:11 AM AKDT 11:07 PM AKDT
Civil Twilight 3:53 AM AKDT 12:23 AM AKDT
Nautical Twilight Sun does not set Sun does not set
Astronomical Twilight Sun does not set Sun does not set
Moon 11:28 PM AKDT (7/19) 11:32 AM AKDT (7/19)
Length of Visible Light 20h 30m
Length of Day
17h 56m
Waning Gibbous, 80% of the Moon is Illuminated
Jul 19
Waning Gibbous
Jul 22
Last Quarter
Jul 30
New
Aug 6
First Quarter
Aug 13
Full

Hourly Weather History & Observations

Time (AKDT) Temp. Dew Point Humidity Pressure Visibility Wind Dir Wind Speed Gust Speed Precip Events Conditions
12:56 AM 53.6 °F 44.6 °F 72% 29.78 in 10.0 mi SSW 10.4 mph 16.1 mph N/A   Clear
1:56 AM 53.6 °F 42.8 °F 67% 29.78 in 10.0 mi South 5.8 mph - N/A   Mostly Cloudy
2:56 AM 51.8 °F 42.8 °F 71% 29.78 in 10.0 mi SSW 4.6 mph - N/A   Scattered Clouds
3:56 AM 51.8 °F 42.8 °F 71% 29.78 in 10.0 mi Calm Calm - N/A   Partly Cloudy
4:56 AM 48.2 °F 42.8 °F 82% 29.81 in 9.0 mi Calm Calm - N/A   Scattered Clouds
5:56 AM 46.4 °F 42.8 °F 87% 29.81 in 8.0 mi Calm Calm - N/A   Overcast
6:56 AM 48.2 °F 42.8 °F 82% 29.81 in 9.0 mi Calm Calm - N/A   Scattered Clouds
7:56 AM 48.2 °F 42.8 °F 82% 29.80 in - Calm Calm - N/A   Clear
8:56 AM 55.4 °F 42.8 °F 63% 29.81 in - Calm Calm - N/A   Clear
9:56 AM 55.4 °F 41.0 °F 58% 29.81 in - North 3.5 mph - N/A   Clear
10:56 AM 57.2 °F 41.0 °F 55% 29.82 in - NE 6.9 mph - N/A   Partly Cloudy
11:56 AM 59.0 °F 39.2 °F 48% 29.82 in - North 5.8 mph - N/A   Scattered Clouds
12:56 PM 60.8 °F 41.0 °F 48% 29.82 in - North 4.6 mph - N/A   Mostly Cloudy
1:56 PM 60.8 °F 41.0 °F 48% 29.82 in - NW 9.2 mph - N/A   Mostly Cloudy
2:56 PM 62.6 °F 39.2 °F 42% 29.82 in - NW 10.4 mph - N/A   Mostly Cloudy
3:56 PM 64.4 °F 37.4 °F 37% 29.83 in - NNW 8.1 mph - N/A   Partly Cloudy
4:56 PM 64.4 °F 39.2 °F 40% 29.84 in - NNE 8.1 mph - N/A   Partly Cloudy
5:56 PM 64.4 °F 39.2 °F 40% 29.84 in - NE 8.1 mph - N/A   Mostly Cloudy
6:56 PM 64.4 °F 41.0 °F 42% 29.85 in - West 12.7 mph - N/A   Partly Cloudy
7:56 PM 62.6 °F 41.0 °F 45% 29.85 in - WNW 11.5 mph - N/A   Clear
8:56 PM 60.8 °F 42.8 °F 52% 29.86 in - West 9.2 mph - N/A   Clear
9:56 PM 57.2 °F 41.0 °F 55% 29.87 in - West 6.9 mph - N/A   Clear
10:56 PM 55.4 °F 42.8 °F 63% 29.89 in - Calm Calm - N/A   Clear
11:56 PM 48.2 °F 39.2 °F 71% 29.90 in - Calm Calm - N/A   Clear